Flag for Australia Weather past 2 weeks in Brisbane, Queensland, Australia

Now
75 °F

Clear.


Feels Like: 78 °F
Forecast: 55 / 79 °F
Wind: 8 mph from Northeast

Location: Brisbane Airport M. O


UV Index: 5 (Moderate)

Visibility: 10 mi


Pressure: 29.92 "Hg

Humidity: 47%

Dew point: 54 °F

Location of BrisbaneLocation

Historic Weather in Brisbane

°F

Brisbane temperature yesterday

Maximum temperature yesterday: 79 °F (at 1:30 PM)
Minimum temperature yesterday: 61 °F (at 5:30 AM)
Average temperature yesterday: 70 °F

Past Weeks' High & Low Weather Summary

 TemperatureHumidityPressure
High86 °F (Apr 12, 11:00 AM)100% (Apr 13, 9:00 PM)30.12 "Hg (Apr 13, 9:00 PM)
Low57 °F (Apr 19, 5:00 AM)24% (Apr 19, 12:00 PM)29.74 "Hg (Apr 11, 2:00 PM)
Average72 °F73%29.97 "Hg
* Reported Apr 4 4:00 PM — Apr 19 4:00 PM, Brisbane, Weather by CustomWeather, © 2014

Note: Actual official high and low records may vary slightly from our data, if they occured in-between our weather recording intervals... More about our weather records

Advertising

Historic Weather Conditions — Data for Previous 24 hours

 ConditionsComfort  
Time TempWeatherWind HumidityBarometerVisibility
4:00 PM
Apr 19
79 °FSunny.10 mph45%29.89 "Hg10 mi
3:30 PM81 °FSunny.8 mph39%29.89 "Hg10 mi
3:00 PM82 °FSunny.8 mph28%29.89 "Hg10 mi
2:30 PM81 °FSunny.6 mph24%29.89 "Hg10 mi
2:00 PM82 °FSunny.10 mph25%29.92 "Hg10 mi
1:30 PM81 °FSunny.12 mph24%29.92 "Hg10 mi
1:00 PM81 °FSunny.13 mph24%29.92 "Hg10 mi
12:30 PM81 °FSunny.12 mph24%29.95 "Hg10 mi
12:00 PM81 °FSunny.15 mph24%29.95 "Hg10 mi
11:00 AM79 °FPassing clouds.9 mph34%29.98 "HgN/A
10:30 AM77 °FPassing clouds.10 mph36%30.01 "HgN/A
10:00 AM75 °FSunny.10 mph41%30.01 "Hg10 mi
9:30 AM73 °FSunny.13 mph47%30.01 "Hg10 mi
9:00 AM72 °FSunny.8 mph50%30.01 "Hg10 mi
8:30 AM68 °FSunny.6 mph60%30.01 "Hg10 mi
8:00 AM64 °FSunny.6 mph68%30.01 "Hg10 mi
7:00 AM61 °FSunny.2 mph83%30.01 "Hg10 mi
6:30 AM57 °FSunny.No wind82%30.01 "Hg10 mi
6:00 AM57 °FSunny.No wind88%29.98 "Hg10 mi
5:30 AM57 °FSunny.7 mph88%29.98 "Hg10 mi
5:00 AM57 °FClear.7 mph88%29.98 "Hg10 mi
4:30 AM59 °FClear.6 mph88%29.98 "Hg10 mi
4:00 AM59 °FClear.8 mph88%29.98 "Hg10 mi
3:30 AM59 °FClear.6 mph88%29.98 "Hg10 mi
3:00 AM61 °FClear.6 mph88%29.98 "Hg10 mi
2:30 AM61 °FClear.3 mph94%29.98 "Hg10 mi
2:00 AM61 °FClear.5 mph94%29.98 "Hg10 mi
1:30 AM63 °FClear.6 mph94%29.98 "Hg10 mi
1:00 AM64 °FClear.5 mph94%29.98 "Hg10 mi
12:30 AM64 °FClear.5 mph94%29.98 "Hg10 mi
12:00 AM68 °FClear.7 mph83%29.98 "Hg10 mi
11:00 PM
Apr 18
66 °FClear.6 mph88%29.98 "Hg10 mi
10:30 PM66 °FClear.3 mph88%30.01 "Hg10 mi
10:00 PM66 °FClear.1 mph88%30.01 "Hg10 mi
9:30 PM68 °FClear.7 mph83%30.01 "Hg10 mi
9:00 PM70 °FClear.7 mph78%29.98 "Hg10 mi
8:30 PM70 °FClear.6 mph83%29.98 "Hg10 mi
8:00 PM70 °FClear.10 mph83%29.98 "Hg10 mi
7:30 PM70 °FClear.8 mph83%29.98 "Hg10 mi
7:00 PM72 °FClear.12 mph73%29.95 "Hg10 mi
6:30 PM72 °FClear.10 mph78%29.95 "Hg10 mi
6:00 PM72 °FClear.14 mph78%29.95 "Hg10 mi
5:30 PM72 °FClear.10 mph78%29.92 "Hg10 mi
5:00 PM73 °FClear.10 mph65%29.92 "Hg10 mi
Weather by CustomWeather, © 2014

See weather overview